Change the Weather History Date:

Friday, March 1, 2013

  Actual Average Record
Temperature  
Mean Temperature 28 °F -  
Max Temperature 30 °F 44 °F 78 °F (2006)
Min Temperature 25 °F 27 °F 8 °F (2009)
Degree Days  
Heating Degree Days 38    
Moisture  
Dew Point 26 °F    
Average Humidity 94    
Maximum Humidity 100    
Minimum Humidity 75    
Precipitation  
Precipitation 0.21 in - - ()
Snow  
Snow 0.00 in - - ()
Snow Depth 11.00 in    
Sea Level Pressure  
Sea Level Pressure 30.21 in    
Wind  
Wind Speed 10 mph (NNW)    
Max Wind Speed 14 mph    
Max Gust Speed 21 mph    
Visibility 10 miles    
Events Rain , Snow    
Averages and records for this station are not official NWS values.
T = Trace of Precipitation, MM = Missing Value Source: NWS Daily Summary

Daily Weather History Graph

Daily Weather History Graph

Search for Another Location

Airport or City:

Trip Planner

Search our weather history database for the weather conditions in past years. The results will help you decide how hot, cold, wet, or windy it might be!

Date:

Astronomy

Mar. 01, 2013 Rise Set
Actual Time 6:46 AM CST 6:07 PM CST
Civil Twilight 6:19 AM CST 6:34 PM CST
Nautical Twilight 5:48 AM CST 7:04 PM CST
Astronomical Twilight 5:17 AM CST 7:35 PM CST
Moon 10:38 PM CST (3/1) 8:36 AM CST (3/1)
Length of Visible Light 12h 14m
Length of Day
11h 21m
Waning Gibbous, 83% of the Moon is Illuminated
Mar 1
Waning Gibbous
Mar 4
Last Quarter
Mar 11
New
Mar 19
First Quarter
Mar 27
Full

Hourly Weather History & Observations

Time (CST) Temp. Windchill Dew Point Humidity Pressure Visibility Wind Dir Wind Speed Gust Speed Precip Events Conditions
12:58 AM 29.5 °F 22.5 °F 27.3 °F 92% 30.15 in 10.0 mi NW 6.9 mph - N/A   Overcast
1:58 AM 29.3 °F 22.3 °F 27.5 °F 93% 30.19 in 10.0 mi WNW 6.9 mph - N/A   Overcast
2:58 AM 29.1 °F 22.1 °F 27.5 °F 94% 30.18 in 10.0 mi NW 6.9 mph - N/A   Overcast
3:48 AM 28.4 °F 21.2 °F 26.6 °F 93% 30.14 in 10.0 mi NW 6.9 mph - N/A   Overcast
3:53 AM 28.4 °F 19.1 °F 26.6 °F 93% 30.14 in 10.0 mi NNW 10.4 mph - N/A   Overcast
3:58 AM 28.8 °F 20.9 °F 27.1 °F 94% 30.19 in 10.0 mi NW 8.1 mph - N/A   Overcast
4:58 AM 28.6 °F 19.9 °F 26.1 °F 90% 30.19 in 10.0 mi NNW 9.2 mph - N/A   Overcast
5:03 AM 28.4 °F 19.7 °F 26.6 °F 93% 30.15 in 10.0 mi NNW 9.2 mph - N/A   Overcast
5:54 AM 28.4 °F 20.4 °F 26.6 °F 93% 30.16 in 10.0 mi NW 8.1 mph - N/A   Light Freezing Rain
5:58 AM 28.2 °F 20.2 °F 26.4 °F 93% 30.20 in 10.0 mi NW 8.1 mph - N/A   Light Freezing Rain
6:03 AM 28.4 °F 20.4 °F 26.6 °F 93% 30.16 in 10.0 mi NNW 8.1 mph - N/A   Overcast
6:06 AM 28.4 °F 20.4 °F 26.6 °F 93% 30.16 in 10.0 mi NW 8.1 mph - N/A   Overcast
6:19 AM 28.4 °F 20.4 °F 26.6 °F 93% 30.16 in 10.0 mi NW 8.1 mph - N/A   Overcast
6:29 AM 28.4 °F 20.4 °F 26.6 °F 93% 30.16 in 10.0 mi NW 8.1 mph - N/A   Overcast
6:34 AM 28.4 °F 19.7 °F 26.6 °F 93% 30.16 in 10.0 mi NW 9.2 mph - N/A   Overcast
6:39 AM 28.4 °F 19.1 °F 26.6 °F 93% 30.16 in 10.0 mi NW 10.4 mph - N/A   Overcast
6:45 AM 28.4 °F 19.1 °F 26.6 °F 93% 30.16 in 10.0 mi NW 10.4 mph - N/A   Light Freezing Rain
6:58 AM 27.7 °F 18.8 °F 27.1 °F 98% 30.21 in 10.0 mi NW 9.2 mph - N/A   Overcast
7:13 AM 26.6 °F 17.5 °F 26.6 °F 100% 30.17 in 10.0 mi NW 9.2 mph - N/A   Overcast
7:38 AM 28.4 °F 20.4 °F 26.6 °F 93% 30.17 in 10.0 mi NW 8.1 mph - N/A   Light Freezing Rain
7:58 AM 27.7 °F 18.2 °F 25.5 °F 92% 30.18 in 10.0 mi NW 10.4 mph - N/A Snow Light Snow
8:28 AM 28.4 °F 19.7 °F 24.8 °F 86% 30.18 in 9.0 mi NW 9.2 mph - N/A Snow Light Snow
8:58 AM 27.9 °F 18.4 °F 24.8 °F 88% 30.23 in 10.0 mi NNW 10.4 mph - N/A   Overcast
9:03 AM 28.4 °F 19.1 °F 24.8 °F 86% 30.19 in 9.0 mi NNW 10.4 mph - N/A Snow Light Snow
9:18 AM 28.4 °F 19.1 °F 24.8 °F 86% 30.19 in 10.0 mi NNW 10.4 mph - N/A Snow Light Snow
9:58 AM 28.4 °F 18.5 °F 23.9 °F 83% 30.23 in 10.0 mi NW 11.5 mph - N/A Snow Light Snow
10:23 AM 28.4 °F 18.0 °F 23.0 °F 80% 30.20 in 9.0 mi NW 12.7 mph - N/A Snow Light Snow
10:37 AM 30.2 °F 21.3 °F 23.0 °F 75% 30.19 in 10.0 mi NNW 10.4 mph 20.7 mph N/A Snow Light Snow
10:58 AM 29.5 °F 20.4 °F 23.4 °F 78% 30.24 in 10.0 mi NNW 10.4 mph - N/A Snow Light Snow
11:58 AM 30.4 °F 20.5 °F 23.4 °F 75% 30.24 in 10.0 mi NW 12.7 mph - 0.00 in Snow Light Snow
12:58 PM 30.0 °F 19.5 °F 24.4 °F 80% 30.23 in 9.0 mi North 13.8 mph - N/A Snow Light Snow
1:58 PM 30.0 °F 20.5 °F 25.7 °F 84% 30.22 in 6.0 mi NNW 11.5 mph - N/A Snow Light Snow
2:58 PM 30.2 °F 20.2 °F 26.8 °F 87% 30.23 in 6.0 mi NNW 12.7 mph - N/A Snow Light Snow
3:58 PM 29.8 °F 19.3 °F 26.8 °F 88% 30.24 in 8.0 mi North 13.8 mph - N/A Snow Light Snow
4:02 PM 30.2 °F 19.8 °F 30.2 °F 100% 30.24 in 7.0 mi NNW 13.8 mph - N/A Snow Light Snow
4:43 PM 28.4 °F 19.1 °F 26.6 °F 93% 30.21 in 7.0 mi NNW 10.4 mph - N/A Snow Light Snow
4:56 PM 28.4 °F 18.5 °F 28.4 °F 100% 30.21 in 5.0 mi NNW 11.5 mph - N/A Snow Light Snow
4:58 PM 29.3 °F 19.6 °F 27.1 °F 92% 30.25 in 5.0 mi NNW 11.5 mph - N/A Snow Light Snow
5:38 PM 28.4 °F 19.1 °F 28.4 °F 100% 30.22 in 7.0 mi NNW 10.4 mph - N/A Snow Light Snow
5:48 PM 28.4 °F 19.1 °F 28.4 °F 100% 30.22 in 8.0 mi NNW 10.4 mph - N/A Snow Light Snow
6:04 PM 28.4 °F 18.5 °F 28.4 °F 100% 29.60 in 10.0 mi NNW 11.5 mph - 0.00 in Snow Light Snow
6:31 PM 28.4 °F 18.5 °F 28.4 °F 100% 30.23 in 10.0 mi NNW 11.5 mph - N/A Snow Light Snow
6:42 PM 28.4 °F 19.1 °F 28.4 °F 100% 30.24 in 10.0 mi NNW 10.4 mph - N/A Snow Light Snow
6:58 PM 28.0 °F 18.6 °F 27.9 °F 99% 30.28 in 10.0 mi NNW 10.4 mph - N/A Snow Light Snow
7:03 PM 28.4 °F 19.1 °F 28.4 °F 100% 30.24 in 10.0 mi NNW 10.4 mph - N/A Snow Light Snow
7:08 PM 28.4 °F 18.5 °F 28.4 °F 100% 30.24 in 10.0 mi NNW 11.5 mph - N/A Snow Light Snow
7:23 PM 28.4 °F 19.1 °F 28.4 °F 100% 30.24 in 10.0 mi NNW 10.4 mph - N/A Snow Light Snow
7:45 PM 28.4 °F 18.5 °F 26.6 °F 93% 30.25 in 10.0 mi NNW 11.5 mph - N/A Rain Light Freezing Rain
7:52 PM 26.6 °F 16.2 °F 26.6 °F 100% 30.25 in 10.0 mi NNW 11.5 mph - N/A   Overcast
7:58 PM 27.5 °F 17.4 °F 27.1 °F 99% 30.29 in 10.0 mi NNW 11.5 mph - N/A   Overcast
8:03 PM 26.6 °F 16.8 °F 26.6 °F 100% 30.25 in 10.0 mi NNW 10.4 mph - N/A Snow Light Snow
8:18 PM 26.6 °F 16.8 °F 26.6 °F 100% 30.25 in 10.0 mi NNW 10.4 mph - N/A   Overcast
8:28 PM 26.6 °F 16.8 °F 26.6 °F 100% 30.25 in 10.0 mi NNW 10.4 mph - N/A Snow Light Snow
8:33 PM 26.6 °F 15.7 °F 26.6 °F 100% 30.25 in 10.0 mi NNW 12.7 mph - N/A Snow Light Snow
8:38 PM 26.6 °F 16.2 °F 26.6 °F 100% 30.25 in 10.0 mi NNW 11.5 mph - N/A   Overcast
8:45 PM 26.6 °F 15.7 °F 26.6 °F 100% 30.25 in 10.0 mi NNW 12.7 mph - N/A Snow Light Snow
8:58 PM 27.0 °F 16.1 °F 26.8 °F 99% 30.30 in 10.0 mi NNW 12.7 mph - 0.00 in Snow Light Snow
9:03 PM 26.6 °F 15.2 °F 26.6 °F 100% 30.26 in 10.0 mi NNW 13.8 mph - N/A Snow Light Snow
9:22 PM 26.6 °F 16.8 °F 26.6 °F 100% 30.26 in 10.0 mi NNW 10.4 mph - N/A   Overcast
9:45 PM 26.6 °F 15.7 °F 26.6 °F 100% 30.27 in 10.0 mi North 12.7 mph - N/A Snow Light Snow
9:58 PM 27.0 °F 16.1 °F 26.8 °F 99% 30.31 in 9.0 mi North 12.7 mph - N/A Snow Light Snow
9:59 PM 26.6 °F 16.2 °F 26.6 °F 100% 30.27 in 9.0 mi North 11.5 mph - N/A   Overcast
10:11 PM 26.6 °F 16.2 °F 26.6 °F 100% 30.27 in 10.0 mi North 11.5 mph - N/A Snow Light Snow
10:23 PM 26.6 °F 16.2 °F 24.8 °F 93% 30.27 in 10.0 mi North 11.5 mph - N/A   Overcast
10:58 PM 25.9 °F 16.6 °F 25.3 °F 98% 30.31 in 10.0 mi North 9.2 mph - N/A   Overcast
11:21 PM 26.6 °F 16.8 °F 24.8 °F 93% 30.28 in 10.0 mi North 10.4 mph - N/A   Overcast
11:34 PM 26.6 °F 16.8 °F 24.8 °F 93% 30.27 in 10.0 mi North 10.4 mph - N/A   Overcast
11:58 PM 25.9 °F 17.4 °F 25.3 °F 98% 30.32 in 10.0 mi North 8.1 mph - N/A   Overcast